APRIZESAT 1

Last updated on Wed Sep 09 2026 00:03:17 GMT+0000 (Coordinated Universal Time)

1 28372U 04025G 26251.55015765 .00000130 00000+0 44224-4 0 9996 2 28372 98.6324 264.5543 0043322 261.5586 98.0696 14.51815733174000
UTC large
Height (km)
Speed (km/s)
/
Latitude / Longitude
Inclination (degrees)
Orbital Period (minutes)
Azimuth
Elevation
Range (km)
Doppler Factor

Next 0 passes for location: London (51.5072 / 0.1276)

No passes found over London.
APRIZESAT 1